Weather History for Joplin, MO

Change the Weather History Date:

Saturday, May 18, 2013

  Actual Average Record
Temperature  
Mean Temperature 75 °F 67 °F  
Max Temperature 85 °F 78 °F 90 °F (1987)
Min Temperature 65 °F 57 °F 39 °F (2002)
Degree Days  
Heating Degree Days 0 2  
Month to date heating degree days 136 51  
Since 1 July heating degree days 4240 4054  
Cooling Degree Days 10 4  
Month to date cooling degree days 40 56  
Year to date cooling degree days 70 110  
Growing Degree Days 24 (Base 50)    
Moisture  
Dew Point 68 °F    
Average Humidity 79    
Maximum Humidity 93    
Minimum Humidity 65    
Precipitation  
Precipitation 0.00 in 0.18 in 1.47 in (1978)
Month to date precipitation 2.04 3.40  
Year to date precipitation 16.54 15.64  
Snow  
Snow 0.00 in - - ()
Month to date snowfall 0.0  
Snow Depth 0.00 in    
Sea Level Pressure  
Sea Level Pressure 29.84 in    
Wind  
Wind Speed 9 mph (SSE)    
Max Wind Speed 17 mph    
Max Gust Speed 22 mph    
Visibility 8 miles    
Events      
T = Trace of Precipitation, MM = Missing Value Source: NWS Daily Summary

Daily Weather History Graph

Daily Weather History Graph

Search for Another Location

Airport:

Trip Planner

Search our weather history database for the weather conditions in past years. The results will help you decide how hot, cold, wet, or windy it might be!

Date:

Astronomy

May. 18, 2013 Rise Set
Actual Time 6:07 AM CDT 8:22 PM CDT
Civil Twilight 5:37 AM CDT 8:51 PM CDT
Nautical Twilight 5:01 AM CDT 9:27 PM CDT
Astronomical Twilight 4:22 AM CDT 10:07 PM CDT
Moon 1:35 PM CDT (5/18) 1:50 AM CDT (5/18)
Length of Visible Light 15h 14m
Length of Day
14h 15m
First Quarter, 55% of the Moon is Illuminated
May 18
First Quarter
May 24
Full
May 31
Last Quarter
Jun 8
New
Jun 16
First Quarter

Hourly Weather History & Observations

Time (CDT) Temp. Heat Index Dew Point Humidity Pressure Visibility Wind Dir Wind Speed Gust Speed Precip Events Conditions
12:53 AM 68.0 °F - 61.0 °F 78% 29.90 in 10.0 mi SE 8.1 mph - N/A   Partly Cloudy
1:53 AM 68.0 °F - 61.0 °F 78% 29.88 in 10.0 mi SE 8.1 mph - N/A   Clear
2:53 AM 64.9 °F - 61.0 °F 87% 29.87 in 10.0 mi ESE 6.9 mph - N/A   Clear
3:53 AM 66.0 °F - 62.1 °F 87% 29.88 in 10.0 mi ESE 3.5 mph - N/A   Overcast
4:53 AM 66.0 °F - 62.1 °F 87% 29.89 in 10.0 mi SE 6.9 mph - N/A   Clear
5:53 AM 64.9 °F - 62.1 °F 90% 29.88 in 10.0 mi SE 4.6 mph - N/A   Partly Cloudy
6:53 AM 66.0 °F - 63.0 °F 90% 29.88 in 10.0 mi ESE 6.9 mph - N/A   Clear
7:53 AM 69.1 °F - 64.9 °F 87% 29.89 in 10.0 mi SE 5.8 mph - N/A   Clear
8:53 AM 73.9 °F - 66.9 °F 79% 29.88 in 9.0 mi SSE 10.4 mph - N/A   Scattered Clouds
9:53 AM 77.0 °F - 69.1 °F 76% 29.87 in 9.0 mi SE 10.4 mph - N/A   Mostly Cloudy
10:53 AM 78.1 °F - 70.0 °F 76% 29.88 in 7.0 mi SSE 11.5 mph 18.4 mph N/A   Overcast
11:53 AM 81.0 °F 85.2 °F 72.0 °F 74% 29.85 in 8.0 mi ESE 8.1 mph - N/A   Mostly Cloudy
12:22 PM 80.6 °F 84.6 °F 71.6 °F 74% 29.87 in 8.0 mi SE 8.1 mph - N/A   Mostly Cloudy
12:53 PM 82.0 °F 86.7 °F 72.0 °F 71% 29.84 in 8.0 mi SSE 13.8 mph - N/A   Overcast
1:05 PM 82.4 °F 87.2 °F 71.6 °F 70% 29.87 in 8.0 mi South 8.1 mph - N/A   Overcast
1:53 PM 82.4 °F 87.2 °F 71.6 °F 70% 29.86 in 7.0 mi SSW 10.4 mph 20.7 mph N/A   Mostly Cloudy
2:53 PM 84.0 °F 89.6 °F 72.0 °F 67% 29.82 in 7.0 mi South 9.2 mph - N/A   Clear
3:53 PM 84.0 °F 89.6 °F 72.0 °F 67% 29.80 in 7.0 mi South 9.2 mph - N/A   Clear
4:53 PM 82.0 °F 86.7 °F 72.0 °F 71% 29.81 in 6.0 mi South 9.2 mph - N/A   Haze
5:53 PM 82.0 °F 86.3 °F 71.1 °F 69% 29.77 in 6.0 mi SE 11.5 mph - N/A   Haze
6:53 PM 81.0 °F 84.9 °F 71.1 °F 72% 29.76 in 6.0 mi SSE 10.4 mph - N/A   Haze
7:53 PM 80.1 °F 83.2 °F 70.0 °F 71% 29.75 in 6.0 mi SE 10.4 mph - N/A   Haze
8:53 PM 77.0 °F - 71.1 °F 82% 29.75 in 7.0 mi SSE 11.5 mph - N/A   Clear
9:53 PM 75.9 °F - 70.0 °F 82% 29.76 in 6.0 mi SSE 9.2 mph - N/A   Haze
10:53 PM 75.0 °F - 70.0 °F 84% 29.78 in 6.0 mi SSE 6.9 mph - N/A   Haze
11:53 PM 75.0 °F - 70.0 °F 84% 29.78 in 6.0 mi South 12.7 mph - N/A   Haze